SB KEPS @ AMSAT $ORB10133.N 2Line Orbital Elements 10133.AMSAT
HR AMSAT ORBITAL ELEMENTS FOR AMATEUR SATELLITES IN NASA FORMAT FROM WA5QGD FORT WORTH,TX May 13, 2010 Send Subscribe/unsubscribe to KEPS at http://www.amsat.org/mailman/listinfo/keps BID: ORB10133.N
DECODE 2-LINE ELSETS WITH THE FOLLOWING KEY: 1 AAAAAU 00 0 0 BBBBB.BBBBBBBB .CCCCCCCC 00000-0 00000-0 0 DDDZ 2 AAAAA EEE.EEEE FFF.FFFF GGGGGGG HHH.HHHH III.IIII JJ.JJJJJJJJKKKKKZ KEY: A-CATALOGNUM B-EPOCHTIME C-DECAY D-ELSETNUM E-INCLINATION F-RAAN G-ECCENTRICITY H-ARGPERIGEE I-MNANOM J-MNMOTION K-ORBITNUM Z-CHECKSUM
TO ALL RADIO AMATEURS BT
AO-07 1 07530U 74089B 10133.64655901 -.00000027 00000-0 10000-3 0 7753 2 07530 101.4012 150.8523 0011827 343.5302 016.5381 12.53578285624124 FO-29 1 24278U 96046B 10132.90279403 .00000061 00000-0 99632-4 0 3094 2 24278 098.5151 326.9115 0349898 215.3189 142.4317 13.52950407678336 SO-33 1 25509U 98061B 10133.66159030 .00000102 00000-0 88511-5 0 7105 2 25509 031.4344 343.7549 0353753 347.9036 011.3279 14.28303445603113 RS-22 1 27939U 03042A 10133.66335301 .00000062 00000-0 20662-4 0 1770 2 27939 097.8977 000.6074 0013737 164.2548 195.9085 14.63415449353905 VO-52 1 28650U 05017B 10133.55845565 -.00000055 00000-0 -43801-6 0 5029 2 28650 097.6948 188.3384 0027820 032.2863 328.0036 14.81741746271560 SO-67 1 35870U 09049F 10133.71649988 .00000752 00000-0 37054-4 0 7226 2 35870 097.3353 183.7583 0002110 190.9354 316.8456 15.20878269 36218 HO-68 1 36122U 09072B 10133.66447253 -.00000045 00000-0 00000 0 0 2999 2 36122 100.4716 194.4401 0007975 055.6074 304.5799 13.16280584 19671 UO-11 1 14781U 84021B 10132.72599957 .00000279 00000-0 44162-4 0 02381 2 14781 098.0581 184.3539 0009157 000.3783 359.7423 14.79800777406564 AO-16 1 20439U 90005D 10132.55043987 .00000041 00000-0 30828-4 0 08944 2 20439 098.3295 091.8652 0009936 273.5718 086.4323 14.31860547060288 LO-19 1 20442U 90005G 10132.76349331 .00000076 00000-0 43718-4 0 08044 2 20442 098.2888 098.0152 0010910 267.3655 092.6266 14.32092464060481 AO-27 1 22825U 93061C 10132.59088719 -.00000009 00000-0 13059-4 0 05282 2 22825 098.4834 081.4660 0008708 020.7392 339.4134 14.29296494866960 IO-26 1 22826U 93061D 10132.52272939 .00000036 00000-0 30762-4 0 02663 2 22826 098.4776 082.0149 0009346 015.4925 344.6541 14.29552551867068 GO-32 1 25397U 98043D 10133.65126307 -.00000140 00000-0 -43963-4 0 1840 2 25397 098.3118 143.0035 0001794 045.4659 314.6676 14.23176779615134 NO-44 1 26931U 01043C 10132.73406181 .00000282 00000-0 14243-3 0 04585 2 26931 067.0526 295.3169 0005672 261.4914 098.5526 14.29597784449683 SO-50 1 27607U 02058C 10132.46565068 .00000065 00000-0 31922-4 0 01730 2 27607 064.5557 105.0149 0034424 093.7356 266.7680 14.71536971397127 CO-55 1 27844U 03031E 10132.59984214 .00000097 00000-0 65108-4 0 8440 2 27844 098.7092 142.0848 0009035 277.5184 082.4968 14.20705830356034 CO-57 1 27848U 03031J 10132.55379706 .00000085 00000-0 60138-4 0 07954 2 27848 098.7137 141.1278 0008877 281.7074 078.3119 14.20498496355985 AO-51 1 28375U 04025K 10132.58924750 .00000038 00000-0 24251-4 0 06753 2 28375 098.0614 128.1158 0082905 205.0977 154.6175 14.40683652308385 GENESAT1 1 29655U 06058C 10133.73244621 .00094518 00000-0 34709-3 0 537 2 29655 040.0172 252.7515 0006732 058.0158 302.1317 15.87138739194503 CP3 1 31129U 07012N 10133.76616855 .00000204 00000-0 57760-4 0 5753 2 31129 097.9414 175.1717 0102015 341.5107 018.2391 14.52252583162865 CO-65 1 32785U 08021C 10133.65520364 -.00000103 00000-0 -63581-5 0 6794 2 32785 097.8982 199.0546 0015754 040.7734 319.4668 14.81647046110371 KKS-1 1 33493U 09002B 10133.72947331 .00000598 00000-0 84206-4 0 4774 2 33493 098.0818 252.9344 0018721 251.9986 107.9188 14.80978536 70389 SOHLA-1 1 33496U 09002E 10133.77469135 .00000073 00000-0 20539-4 0 1014 2 33496 098.0545 243.3001 0005807 320.7801 039.2979 14.69492100 69822 NOAA-10 1 16969U 86073A 10133.38515050 .00000089 00000-0 54082-4 0 632 2 16969 098.6593 162.6759 0011418 316.9943 043.0350 14.27416206230619 NOAA-11 1 19531U 88089A 10133.23654547 .00000043 00000-0 45010-4 0 763 2 19531 098.7683 222.8544 0010669 246.7274 113.2806 14.14924799116192 NOAA-12 1 21263U 91032A 10133.32930896 .00000059 00000-0 43825-4 0 5623 2 21263 098.7657 146.4931 0011338 268.7642 091.2239 14.25632516987439 MET-3/5 1 21655U 91056A 10133.69038660 .00000051 00000-0 10000-3 0 8108 2 21655 082.5547 333.0131 0014755 076.5733 283.7053 13.17020843901130 MET-2/21 1 22782U 93055A 10132.85793405 .00000050 00000-0 31939-4 0 7735 2 22782 082.5449 280.4689 0023352 138.8167 221.4767 13.83644555843199 OKEAN-4 1 23317U 94066A 10133.70407662 .00000211 00000-0 23057-4 0 2304 2 23317 082.5421 026.0466 0022404 000.4322 359.6897 14.82814530841340 NOAA-14 1 23455U 94089A 10133.32246038 .00000007 00000-0 27035-4 0 534 2 23455 098.8782 214.3060 0009232 340.5536 019.5296 14.13785745792578 NOAA-15 1 25338U 98030A 10133.18253747 .00000019 00000-0 26884-4 0 3734 2 25338 098.6160 120.7391 0010716 171.1989 188.9363 14.24824740623765 RESURS 1 25394U 98043A 10132.65833219 -.00000001 00000-0 17129-4 0 05038 2 25394 098.3067 152.6696 0001421 009.5125 350.6080 14.24200566615298 FENGYUN1 1 25730U 99025A 10133.63221950 -.00000211 00000-0 -98124-4 0 410 2 25730 098.7853 099.4882 0024602 008.6982 351.4601 14.08223216566822 OKEAN-0 1 25860U 99039A 10132.76849906 .00000092 00000-0 21514-4 0 9906 2 25860 097.8292 106.6763 0001043 108.8930 251.2387 14.73638481581687 NOAA-16 1 26536U 00055A 10133.16427618 .00000354 00000-0 21628-3 0 8505 2 26536 099.1711 149.8058 0011426 077.4257 282.8212 14.12559366496885 NOAA-17 1 27453U 02032A 10133.42980160 .00000043 00000-0 36618-4 0 8541 2 27453 098.4336 185.2677 0010851 236.3000 123.7141 14.24156829409757 NOAA-18 1 28654U 05018A 10133.42094271 -.00000018 00000-0 14410-4 0 3387 2 28654 098.9475 079.7884 0014818 148.1756 212.0313 14.11353388256536 NOAA-19 1 33591U 09005A 10133.47230597 .00000252 00000-0 16424-3 0 5366 2 33591 098.7864 076.3341 0014711 031.2647 328.9399 14.11051711 65013 HUBBLE 1 20580U 90037B 10133.13907466 .00000459 00000-0 22325-4 0 5642 2 20580 028.4674 108.6573 0003720 187.3225 172.7302 15.00970283899483 ISS 1 25544U 98067A 10134.04366898 .00022548 00000-0 15871-3 0 1474 2 25544 051.6469 045.8067 0009642 314.0466 220.6655 15.73972181658096 CO-58 1 28895U 05043F 10132.68395237 .00000114 00000-0 33269-4 0 5814 2 28895 098.0220 018.3284 0018710 040.2222 320.0356 14.59888192241809 FALCON 1 30776U 07006E 10133.68776137 .00000843 00000-0 63382-4 0 8269 2 30776 035.4340 253.7438 0001841 283.6586 076.3923 15.03652283174869 MAST 1 31126U 07012K 10132.63362061 .00000082 00000-0 29182-4 0 8633 2 31126 097.9395 176.4771 0094503 337.4000 022.3046 14.53583927162898 CAPE1 1 31130U 07012P 10132.58195457 .00000205 00000-0 57952-4 0 08852 2 31130 097.9442 173.9086 0101876 345.5314 014.2954 14.52174825162493 COMPASS 1 32787U 08021E 10133.66432633 .00000212 00000-0 33471-4 0 6702 2 32787 097.8961 198.8920 0016733 040.5377 319.7077 14.81859607110388 AAUSAT2 1 32788U 08021F 10132.72545899 -.00000007 00000-0 58603-5 0 06649 2 32788 097.8962 198.0857 0016436 045.1769 315.0755 14.81999552110259 DO-64 1 32789U 08021G 10132.80512928 .00000565 00000-0 77479-4 0 6791 2 32789 097.9035 198.5984 0016476 044.1121 316.1400 14.82127477110263 CO-66 1 32791U 08021J 10133.68126741 .00000505 00000-0 70766-4 0 6623 2 32791 097.8975 198.9282 0017049 039.1207 321.1274 14.81649527110347 RS-30 1 32953U 08025A 10133.76031698 .00000010 00000-0 00000 0 0 6880 2 32953 082.5026 051.0840 0018370 173.3378 186.7948 12.43005211 89465 TACSAT-3 1 35001U 09028A 10132.93678004 .00004813 00000-0 11679-3 0 03056 2 35001 040.4570 065.8111 0019727 101.4328 258.8705 15.41524656055192 PHARMSAT 1 35002U 09028B 10132.96765215 .00004460 00000-0 10645-3 0 02746 2 35002 040.4706 063.7550 0022979 106.0940 254.2407 15.42081883055215 HAWKSAT1 1 35003U 09028C 10132.87962265 .00009596 00000-0 20252-3 0 02910 2 35003 040.4627 060.0715 0020780 118.6164 241.6671 15.44899831055255 CP6 1 35004U 09028D 10132.89440630 .00011286 00000-0 23156-3 0 02858 2 35004 040.4678 059.3025 0019725 123.4708 236.7881 15.45628069055254 AEROCUB3 1 35005U 09028E 10132.92341626 .00032082 00000-0 56506-3 0 03109 2 35005 040.4745 058.0980 0016449 134.9228 225.2824 15.49572420055275 DRAGNSAT 1 35690U 09038B 10076.22711312 .05715194 12509-4 31481-3 0 3162 2 35690 051.6170 315.4586 0004999 310.9891 057.3269 16.42150010 36561 POLLUX 1 35693U 09038E 10087.99866888 .23496735 12787-4 17715-3 0 3529 2 35693 051.6099 254.5746 0006270 294.4866 097.5899 16.52338462 38395 CASTOR 1 35694U 09038F 10133.79239933 .00063345 12949-4 14542-3 0 3713 2 35694 051.6373 023.6464 0003780 097.4785 262.6653 15.97564634 45556 METEOR-M 1 35865U 09049A 10133.65216639 .00000176 00000-0 10000-3 0 2907 2 35865 098.7600 187.6922 0003357 098.2506 261.9018 14.21830099 33811 RS-38 1 35869U 09049E 10133.76808857 .00000177 00000-0 10000-3 0 2969 2 35869 098.7601 187.8375 0005419 099.9653 260.2095 14.21981425 33831 /EX
participants (1)
-
Ray Hoad